N3SW-13 Weather Reports


time (UTC)temp
C
wind
direction
speed
KPH
gust
KPH
rain 1hr
cm
rain 24hr
cm
rain mn
cm
humidity
%
barometer
mb
20260510164509 24 327 1.6 8.0 0.00 0.00 0.00 46 1014.4
20260510163006 23 298 0.0 6.4 0.00 0.00 0.00 48 1014.3
20260510161502 23 273 1.6 6.4 0.00 0.00 0.00 49 1014.5
20260510160100 23 257 0.0 11.3 0.00 0.00 0.00 49 1014.7
20260510154600 22 261 0.0 9.7 0.00 0.00 0.00 50 1014.6
20260510153059 22 245 0.0 8.0 0.00 0.00 0.00 51 1014.7
20260510151554 22 309 1.6 17.7 0.00 0.00 0.00 51 1014.8
20260510150054 21 272 0.0 4.8 0.00 0.00 0.00 54 1014.7
20260510144558 21 273 0.0 17.7 0.00 0.00 0.00 54 1014.8
20260510143044 20 246 3.2 9.7 0.00 0.00 0.00 56 1014.9
20260510141541 20 196 1.6 9.7 0.00 0.00 0.00 59 1014.9
20260510140037 18 332 0.0 1.6 0.00 0.00 0.00 62 1014.9
20260510134533 18 339 0.0 1.6 0.00 0.00 0.00 66 1015.0
20260510133028 16 263 0.0 4.8 0.00 0.00 0.00 69 1015.0
20260510131527 16 257 0.0 0.0 0.00 0.00 0.00 74 1015.1
20260510130025 15 257 0.0 0.0 0.00 0.00 0.00 77 1014.8
20260510124523 14 257 0.0 0.0 0.00 0.00 0.00 80 1014.6
20260510123021 13 257 0.0 0.0 0.00 0.00 0.00 82 1014.6
20260510121520 13 257 0.0 1.6 0.00 0.00 0.00 83 1014.5
20260510120020 12 257 0.0 0.0 0.00 0.00 0.00 83 1014.5
20260510114522 12 257 0.0 0.0 0.00 0.00 0.00 83 1014.2
20260510113024 12 257 0.0 0.0 0.00 0.00 0.00 83 1014.2
20260510111515 12 257 0.0 0.0 0.00 0.00 0.00 82 1013.9
20260510110019 12 257 0.0 0.0 0.00 0.00 0.00 82 1013.6
20260510104511 12 257 0.0 0.0 0.00 0.00 0.00 82 1013.3
20260510103010 11 257 0.0 0.0 0.00 0.00 0.00 82 1013.1
20260510101508 11 257 0.0 0.0 0.00 0.00 0.00 82 1013.0
20260510100009 11 257 0.0 0.0 0.00 0.00 0.00 81 1012.8
20260510094505 11 257 0.0 0.0 0.00 0.00 0.00 81 1012.7
20260510093003 11 257 0.0 0.0 0.00 0.00 0.00 80 1012.5
20260510091601 12 257 0.0 0.0 0.00 0.00 0.00 79 1012.3
20260510090058 12 257 0.0 0.0 0.00 0.00 0.00 77 1012.2
20260510084610 12 257 0.0 0.0 0.00 0.00 0.00 78 1012.1
20260510083056 12 257 0.0 0.0 0.00 0.00 0.00 77 1012.1
20260510081556 12 257 0.0 0.0 0.00 0.00 0.00 75 1012.1
20260510080100 13 257 0.0 1.6 0.00 0.00 0.00 73 1011.9
20260510074552 14 257 0.0 0.0 0.00 0.00 0.00 72 1011.8
20260510073051 13 257 0.0 0.0 0.00 0.00 0.00 73 1011.8
20260510071548 13 257 0.0 0.0 0.00 0.00 0.00 72 1011.7
20260510070050 14 257 0.0 0.0 0.00 0.00 0.00 71 1011.7
20260510064547 14 257 0.0 0.0 0.00 0.00 0.00 71 1011.7
20260510063043 13 257 0.0 0.0 0.00 0.00 0.00 71 1011.8
20260510061542 13 257 0.0 3.2 0.00 0.00 0.00 71 1011.9
20260510060046 13 257 1.6 4.8 0.00 0.00 0.00 71 1011.9
20260510054540 13 257 0.0 0.0 0.00 0.00 0.00 70 1012.0
20260510053037 14 257 0.0 0.0 0.00 0.00 0.00 69 1012.0
20260510051534 15 257 0.0 0.0 0.00 0.00 0.00 67 1011.9
20260510050034 15 257 0.0 0.0 0.00 0.00 0.00 64 1012.0
20260510044528 16 257 0.0 1.6 0.00 0.00 0.00 61 1012.0
20260510043029 16 257 0.0 1.6 0.00 0.00 0.00 61 1012.1
20260510041527 16 257 0.0 0.0 0.00 0.00 0.00 61 1011.9
20260510040022 16 257 0.0 0.0 0.00 0.00 0.00 61 1012.2
20260510034522 16 257 0.0 1.6 0.00 0.00 0.00 60 1012.1
20260510033021 16 257 0.0 0.0 0.00 0.00 0.00 60 1011.9
20260510031524 16 257 0.0 0.0 0.00 0.00 0.00 59 1011.7
20260510030020 16 257 0.0 0.0 0.00 0.00 0.00 60 1011.6
20260510024522 16 257 0.0 0.0 0.00 0.00 0.00 60 1011.5
20260510023019 16 257 0.0 0.0 0.00 0.00 0.00 59 1011.4
20260510021546 17 257 0.0 0.0 0.00 0.00 0.00 58 1011.3
20260510020018 17 257 0.0 0.0 0.00 0.00 0.00 57 1011.0
20260510014531 17 257 0.0 3.2 0.00 0.00 0.00 56 1010.8
20260510013017 18 257 0.0 3.2 0.00 0.00 0.00 54 1010.5
20260510011518 18 257 0.0 0.0 0.00 0.00 0.00 53 1010.3
20260510010027 18 257 0.0 0.0 0.00 0.00 0.00 52 1010.1
20260510004518 18 257 0.0 1.6 0.00 0.00 0.00 51 1009.8
20260510003019 19 257 0.0 1.6 0.00 0.00 0.00 51 1009.9
20260510001515 20 257 0.0 3.2 0.00 0.00 0.00 49 1009.8
20260510000015 20 257 0.0 0.0 0.00 0.00 0.00 48 1009.5
20260509234515 21 257 0.0 4.8 0.00 0.00 0.00 47 1009.3
20260509233013 21 248 0.0 6.4 0.00 0.00 0.00 46 1009.1
20260509231511 21 229 0.0 16.1 0.00 0.00 0.00 44 1009.0
20260509230022 22 263 1.6 6.4 0.00 0.00 0.00 44 1008.7
20260509224511 22 293 3.2 11.3 0.00 0.00 0.00 44 1008.8
20260509223011 22 257 0.0 6.4 0.00 0.00 0.00 44 1008.8
20260509221509 22 240 0.0 4.8 0.00 0.00 0.00 46 1008.8
20260509220010 22 237 1.6 6.4 0.00 0.00 0.00 46 1008.7
20260509214509 22 226 0.0 6.4 0.00 0.00 0.00 44 1008.6
20260509213010 22 214 0.0 6.4 0.00 0.00 0.00 44 1008.5
20260509211506 22 311 0.0 8.0 0.00 0.00 0.00 44 1008.5
20260509210006 23 232 0.0 8.0 0.00 0.00 0.00 44 1008.2
20260509204505 23 271 1.6 12.9 0.00 0.00 0.00 42 1008.3
20260509203004 23 309 0.0 12.9 0.00 0.00 0.00 42 1008.2
20260509201510 24 310 1.6 17.7 0.00 0.00 0.00 41 1008.1
20260509200104 23 275 0.0 8.0 0.00 0.00 0.00 44 1008.2
20260509194602 23 284 0.0 11.3 0.00 0.00 0.00 43 1008.3
20260509193057 23 323 0.0 12.9 0.00 0.00 0.00 47 1008.2
20260509191606 23 267 0.0 14.5 0.00 0.00 0.00 46 1008.4
20260509190053 22 310 0.0 9.7 0.00 0.00 0.00 53 1008.6
20260509184558 22 311 0.0 4.8 0.00 0.00 0.00 52 1008.5
20260509183051 22 327 0.0 3.2 0.00 0.00 0.00 52 1008.7
20260509181545 21 327 0.0 1.6 0.00 0.00 0.00 59 1008.9
20260509180051 21 327 0.0 8.0 0.00 0.00 0.00 60 1009.0
20260509174537 20 5 0.0 0.0 0.00 0.00 0.00 63 1009.4
20260509173046 20 5 0.0 3.2 0.00 0.00 0.00 65 1009.3
20260509171537 18 5 0.0 0.0 0.00 0.00 0.00 65 1009.6
20260509170030 18 5 0.0 1.6 0.00 0.00 0.00 63 1009.9